Voltar ao catálogo

STARLINK-4748

AtivoComunicaçõesVLEO
NORAD 53823·PAYLOAD·🇺🇸 United States

Lançado Sep 19, 2022 de Cape Canaveral Space Force Station

Loading…

Próximas Passagens (próximas 24 horas)

TLE

AtualizadoSource: CelesTrak SupGP

Época: Sep 15, 2026, 01:37 UTC

1 53823C 22114F   26258.06784722  .00049133  00000+0  14520-2 0  2581
2 53823  53.1576 116.7641 0001261  85.7591  30.0628 15.34358657    18

Acompanhe STARLINK-4748 em tempo real com AllMySat

Download on the App Store